{"data":{"norad_id":55439,"epoch":"2026-05-24T18:35:00.863520Z","epoch_age_seconds":94168,"freshness":"FRESH","line1":"1 55439U 23014BA  26144.77431555  .00000226  00000+0  26712-4 0  9991","line2":"2 55439  69.9987 272.6881 0002891 267.6866  92.3962 14.98331855182460","mean_motion":14.98331855,"eccentricity":0.0002891,"inclination_deg":69.9987,"raan_deg":272.6881,"arg_perigee_deg":267.6866,"mean_anomaly_deg":92.3962,"bstar":2.6712e-5,"rev_number":18246,"period_min":96.106880141049,"perigee_km":570.04085540948,"apogee_km":574.05945362222,"semimajor_km":6950.1871545159,"source":"CELESTRAK","updated_at":"2026-05-25T13:38:17.801718Z"}}